TRANSIT 5B-1 DEB, 2097

Orbit data source: Space-Track

TRANSIT 5B-1 DEB, 2097 is space debris in LEO originally from a launch on Sat, 28 Sep 1963 UTC launched from the Air Force Western Test Range (AFWTR). Debris objects in space refer to the collection of defunct objects orbiting the Earth. Examples of debris include non-operational satellites, rocket bodies, and fragments generated from explosions, collisions, or faulty payload assembly.

Loading next visibility...
Identifier
2097, 1963-038G
Orbit
LEO
Country
Flag of USUS
Related business
Manufacturer
Unknown
Mission
Spacecraft
Bus & Motor
Unknown
Mass
Unknown
Launch date (UTC)
1963-09-28 (63 years ago)
Launch vehicle
Unknown
Launch site
Air Force Western Test Range (AFWTR)
Object type
Payload
Rocket body
Debris
Shape & HBR
Unknown shape, 0.1 m
Radar Cross Section
Medium (>0.1 m² and <1 m²)

Expand to show TLE details & history
Last TLE update: 17 hours ago

TLE from 17 hours ago
0 TRANSIT 5B-1 DEB
1 02097U 63038G   26175.22586363  .00000550  00000-0  64890-3 0  9994
2 02097  89.9962 338.1540 0040312 170.9468   2.6385 13.66473432100589
Epoch: 2026-06-24T05:25Z
TLE epoch observation values (Epoch: 2026-06-24T05:25:14.617Z)
Latitude
6.31542°
Longitude
164.45655°
Altitude
984.873 km
Speed
7.374 km/s
True Right ascension
10h 32m 36s
True Declination
6° 16' 45"
Sunlit
Object was in daylight at epoch
Visualization orbit readout
Latitude
Unknown
Longitude
Unknown
Altitude
Unknown
Speed
Unknown
Apparent Right ascension
Unknown
Apparent Declination
Unknown
Sunlit
N/A
Visualization observer readout
Local Sidereal Time
09:07:21
Azimuth
Unknown
Elevation
Unknown
Doppler factor
Unknown
Orbital elements
Apogee altitude
1,039.065 km
Perigee altitude
979.505 km
Semi-major axis
7,387.422 km
Eccentricity
0.00403
Inclination
89.9962°
RAAN
338.154°
Arg. of periapsis
170.9468°
True anomaly
2.65987°
Mean anomaly
2.6385°
Eccentric anomaly
2.64918°
Mean motion
3.41825 °/min
Orbital period
105.32 mins
BSTAR
0.0006489
Loading maneuver chart data...
Computing Atmospheric mass density...

Documentation

Showing up to 5 results
|